Regional Weather Roundup
Issued by NWS

Home | Current Version | Previous Version | Graphics & Text | Print | Product List | Glossary On
Versions: 1 2 3 4 5 6 7 8 9 10 11 12 13 14 15 16 17 18 19 20 21 22 23 24 25 26 27 28 29 30 31 32 33 34 35 36 37 38 39 40 41 42 43 44 45 46 47 48 49 50
000
ASUS43 KMPX 161010
RWRMN
WEATHER ROUNDUP FOR MINNESOTA
NATIONAL WEATHER SERVICE TWIN CITIES/CHANHASSEN MN
500 AM CDT MON OCT 16 2017


NOTE: "FAIR" INDICATES FEW OR NO CLOUDS BELOW 12,000 FEET WITH NO
SIGNIFICANT WEATHER AND/OR OBSTRUCTIONS TO VISIBILITY. N/A MEANS
CURRENT SKY AND/OR WEATHER CONDITIONS ARE NOT AVAILABLE.

MNZ060>063-068>070-161100-
   Twin Cities Metro

CITY           SKY/WX    TMP DP  RH WIND       PRES   REMARKS
TWIN CITIES    CLEAR     41  38  89 S5        30.22F
ST PAUL        CLEAR     42  39  89 CALM      30.23F
CRYSTAL        CLOUDY    38  35  89 CALM      30.20S
BLAINE         CLEAR     39  39 100 CALM      30.20F
LAKEVILLE      CLEAR     37  37 100 CALM      30.22S
EDEN PRAIRIE   CLOUDY    39  37  92 SW5       30.21F
SOUTH ST PAUL  CLEAR     41  37  84 CALM      30.22S
LAKE ELMO      FAIR      36  36 100 CALM      30.23R
$$
MNZ001>005-007-008-013>017-022>024-027-028-161100-
   Northwest Minnesota

CITY           SKY/WX    TMP DP  RH WIND       PRES   REMARKS
BEMIDJI        PTCLDY    35  32  87 SW7       30.12S WCI  30
HALLOCK        CLOUDY    28  27  93 S8        30.04F WCI  20
ROSEAU           N/A     34  28  80 S8        30.05F WCI  27
WARROAD        CLEAR     34  28  80 S6        30.06S WCI  29
THIEF RVR FALL CLEAR     33  29  85 S8        30.10F WCI  26
CROOKSTON      CLEAR     28  27  93 S7        30.11F WCI  21
FOSSTON        CLOUDY    30  28  93 S7        30.12F WCI  23
DETROIT LAKES  CLOUDY    36  34  93 S3        30.16S
MOORHEAD       CLOUDY    34  30  86 S7        30.15F WCI  28
PARK RAPIDS    CLOUDY    35  32  88 CALM      30.15R
MAHNOMEN       FAIR      32  31  94 S10       30.13F WCI  24
$$
MNZ006-009>011-018-025>026-161100-
   North Central Minnesota

CITY           SKY/WX    TMP DP  RH WIND       PRES   REMARKS
BAUDETTE       CLEAR     31  29  92 S3        30.07F
FLAG ISLAND    CLEAR     37  30  75 SW9       30.02F
INTL FALLS     CLEAR     30  27  88 SW6       30.08S WCI  24
WASKISH        CLEAR     36  34  93 CALM      30.09F
BIG FORK       PTCLDY    32  30  93 CALM      30.11F
LONGVILLE      MOCLDY    37  36  93 CALM      30.14S
GRAND RAPIDS   PTCLDY    35  33  92 S3        30.15S
CRANE LAKE     CLEAR     27  27 100 CALM      30.11F
ORR            CLEAR     34  30  86 CALM      30.08F
COOK           CLEAR     32  30  93 CALM      30.11F
WALKER         FAIR      38  32  79 SW5       30.13S
$$
MNZ012-019>021-037-161100-
   Northeast Minnesota

CITY           SKY/WX    TMP DP  RH WIND       PRES   REMARKS
DULUTH         CLEAR     33  33 100 W8        30.14S WCI  26
ELY            CLEAR     34  34 100 SW5       30.11S WCI  30
HIBBING        CLEAR     25  24  96 CALM      30.12F
EVELETH        FOG       32  32 100 CALM      30.14S VSB 1
DULUTH HARBOR  PTCLDY    37  36  93 SW9       30.17R
TWO HARBORS    CLEAR     43  36  75 NW7       30.12R
GRAND MARAIS     N/A     41  35  79 SW3       30.11S
G MARAIS ARPRT CLEAR     30  28  93 CALM      30.08S
$$
MNZ029>031-032-039>041-046>048-054>057-064-161100-
   West Central Minnesota

CITY           SKY/WX    TMP DP  RH WIND       PRES   REMARKS
FERGUS FALLS   CLOUDY    34  34 100 SE5       30.19S WCI  30
WHEATON        CLEAR     36  30  80 S7        30.19F
MORRIS         CLEAR     37  32  81 CALM      30.19S
ALEXANDRIA     CLEAR     36  33  89 SW5       30.19F
ELBOW LAKE     FAIR      32  30  94 CALM      30.19S
WADENA         PTCLDY    34  34 100 CALM      30.15F
GLENWOOD       CLOUDY    36  34  93 SW6       30.19S
APPLETON       PTCLDY    37  32  81 SW3       30.20F
BENSON         PTCLDY    34  32  93 CALM      30.22S
ORTONVILLE     CLEAR     36  30  80 NW6       30.20F
MADISON        CLEAR     37  34  87 SW7       30.21F
WILLMAR        FAIR      34  34 100 SW5       30.23R WCI  30
$$
MNZ033>034-036-042>043-049>051-058-059-161100-
   Central Minnesota

CITY           SKY/WX    TMP DP  RH WIND       PRES   REMARKS
ST CLOUD       CLEAR     32  32 100 CALM      30.19F
SAUK CENTRE    FAIR      33  32  96 CALM      30.19S
PAYNESVILLE    PTCLDY    33  33  99 W6        30.20F WCI  28
AITKIN         PTCLDY    30  28  93 CALM      30.15S
PINE RIVER     PTCLDY    28  27  93 CALM      30.18S
BRAINERD       PTCLDY    34  33  96 S5        30.17S WCI  30
STAPLES        PTCLDY    36  34  93 CALM      30.16F
LONG PRAIRIE   FAIR      32  32 100 CALM      30.18F
LITTLE FALLS   PTCLDY    32  30  93 CALM      30.19S
LITCHFIELD     CLEAR     39  36  87 SW5       30.21S
BUFFALO        CLOUDY    38  36  91 CALM      30.21F
MAPLE LAKE     CLEAR     36  36  98 CALM      30.21F
HUTCHINSON     CLOUDY    35  34  96 CALM      30.22F
$$
MNZ037-044-045-052-053-161100-
   East Central Minnesota

CITY           SKY/WX    TMP DP  RH WIND       PRES   REMARKS
PRINCETON      PTCLDY    32  30  93 CALM      30.20F
MORA           PTCLDY    32  32 100 CALM      30.20F FOG
CAMBRIDGE      CLOUDY    36  36 100 CALM      30.20S FOG
RUSH CITY      CLOUDY    34  32  94 CALM      30.20S
MOOSE LAKE     CLEAR     32  30  93 CALM      30.16S
HINCKLEY       FAIR      32  32 100 CALM      30.18S
CLOQUET        PTCLDY    37  34  87 W3        30.15S
MCGREGOR       PTCLDY    36  34  93 CALM      30.17S
$$
MNZ071>073-080-081-089-090-097-098-161100-
   Southwest Minnesota

CITY           SKY/WX    TMP DP  RH WIND       PRES   REMARKS
MONTEVIDEO     CLOUDY    37  34  87 W6        30.23R
GRANITE FALLS  PTCLDY    35  32  90 SW7       30.24F WCI  29
CANBY          CLEAR     42  33  70 SW7       30.23F
MARSHALL       CLEAR     38  32  79 SW3       30.23F
REDWOOD FALLS  CLEAR     39  31  72 W6        30.23F
OLIVIA         CLEAR     34  32  93 SW3       30.22S
PIPESTONE      CLEAR     34  30  86 CALM      30.24F
WORTHINGTON    CLEAR     35  32  88 SW5       30.27S WCI  31
JACKSON        CLEAR     36  32  87 CALM      30.27S
TRACY          CLEAR     39  33  80 SW7       30.24F
SLAYTON        CLEAR     38  32  78 SW7       30.26S
$$
MNZ065>067-074>077-082>085-091>093-161100-
   South Central Minnesota

CITY           SKY/WX    TMP DP  RH WIND       PRES   REMARKS
MANKATO        CLEAR     38  34  85 SW3       30.25S
NEW ULM          N/A     34  30  86 W8        30.24S WCI  27
ST JAMES       CLEAR     36  34  93 SW6       30.26S
FAIRMONT       CLEAR     36  33  89 W3        30.26S
GLENCOE        PTCLDY    37  38 100 SW6       30.22S
FARIBAULT      CLEAR     36  36 100 CALM      30.25R
OWATONNA       CLEAR     36  34  93 CALM      30.25S
WASECA         CLEAR     32  32 100 CALM      30.26S
ALBERT LEA     CLEAR     39  39 100 CALM      30.25S
$$
MNZ078>079-086>088-094>096-161100-
   Southeast Minnesota

CITY           SKY/WX    TMP DP  RH WIND       PRES   REMARKS
ROCHESTER      PTCLDY    36  34  92 SW7       30.25R
RED WING       CLEAR     36  34  93 CALM      30.23R
STANTON        CLEAR     37  34  89 S5        30.23R
DODGE CENTER   CLEAR     34  34 100 SW3       30.25R
WINONA         CLEAR     36  36 100 CALM      30.26R
AUSTIN         CLEAR     36  34  93 CALM      30.26R
PRESTON        CLEAR     38  33  80 W5        30.26R
$$
ABBREVIATIONS USED IN REMARKS
   TC - TEMPERATURES IN CELSIUS
  WCI - WIND CHILL INDEX
   HX - HEAT INDEX
  VSB - VISIBILITY
$$




USA.gov is the U.S. government's official web portal to all federal, state and local government web resources and services.